Regional Weather Roundup
Issued by NWS

Home | Current Version | Previous Version | Graphics & Text | Print | Product List | Glossary On
Versions: 1 2 3 4 5 6 7 8 9 10 11 12 13 14 15 16 17 18 19 20 21 22 23 24 25 26 27 28 29 30 31 32 33 34 35 36 37 38 39 40 41 42 43 44 45 46 47 48 49 50
000
ASUS43 KBIS 031110
RWRND

NORTH DAKOTA REGIONAL WEATHER ROUNDUP
NATIONAL WEATHER SERVICE BISMARCK ND
600 AM CDT FRI JUL 03 2015

NOTE: "FAIR" INDICATES FEW OR NO CLOUDS BELOW 12,000 FEET WITH NO
SIGNIFICANT WEATHER AND/OR OBSTRUCTIONS TO VISIBILITY.


NDZ001>003-009>011-017-031200-
NORTHWEST NORTH DAKOTA

CITY           SKY/WX    TMP DP  RH WIND       PRES   REMARKS
WILLISTON      MOCLDY    60  58  92 N5        30.01R FOG
MINOT          CLOUDY    60  57  89 SW3       29.98S FOG
MINOT AFB      CLEAR     60  60 100 NW3       29.98S FOG
$$

NDZ018>021-031>035-040>046-031200-
SOUTHWEST NORTH DAKOTA

CITY           SKY/WX    TMP DP  RH WIND       PRES   REMARKS
BISMARCK       CLOUDY    63  61  93 W3        29.99S FOG
DICKINSON      CLEAR     57  54  89 CALM      30.02S FOG
GARRISON         N/A     60  58  92 N3        30.00R
HETTINGER ARPT CLEAR     54  52  93 CALM      30.05S FOG
$$

NDZ004>008-012>016-024-026-027-054-031200-
NORTHEAST NORTH DAKOTA

CITY           SKY/WX    TMP DP  RH WIND       PRES   REMARKS
GRAND FORKS    FOG       61  61 100 W6        29.91R VSB 3/4
GRND FRKS AFB  CLEAR     61  60  97 NW6       29.92R FOG
DEVILS LAKE    CLOUDY    61  55  82 CALM      29.95R VSB<1/4
$$

NDZ022-023-025-028>030-036>039-047>053-031200-
SOUTHEAST NORTH DAKOTA

CITY           SKY/WX    TMP DP  RH WIND       PRES   REMARKS
FARGO          CLEAR     63  61  93 SW6       29.92S FOG
JAMESTOWN      CLOUDY    64  62  93 NW3       29.96R FOG
$$



USA.gov is the U.S. government's official web portal to all federal, state and local government web resources and services.